Regional Weather Roundup
Issued by NWS Cleveland, OH

Home | Current Version | Previous Version | Graphics & Text | Print | Product List | Glossary On
Versions: 1 2 3 4 5 6 7 8 9 10 11 12 13 14 15 16 17 18 19 20 21 22 23 24 25 26 27 28 29 30 31 32 33 34 35 36 37 38 39 40 41 42 43 44 45 46 47 48 49 50
000
ASUS41 KCLE 191310
RWRCLE
OHIO REGIONAL WEATHER ROUNDUP
NATIONAL WEATHER SERVICE CLEVELAND, OH
900 AM EDT FRI SEP 19 2014

NOTE: "FAIR" INDICATES FEW OR NO CLOUDS BELOW 12,000 FEET WITH NO
SIGNIFICANT WEATHER AND/OR OBSTRUCTIONS TO VISIBILITY.

OHZ001>008-015>018-024>027-034-035-043-044-191400-
   NORTHWEST OHIO

CITY           SKY/WX    TMP DP  RH WIND       PRES   REMARKS
DEFIANCE       SUNNY     51  47  86 NE3       30.25S FOG
FINDLAY        SUNNY     54  49  83 E7        30.23S
TOLEDO EXPRESS SUNNY     51  48  89 NE3       30.24F
TOLEDO EXEC    SUNNY     57  49  74 NE3       30.26R
LIMA           SUNNY     55  51  86 E9        30.23R
$$

OHZ009>014-019>023-028>033-038-089-191400-
   NORTHEAST OHIO

CITY           SKY/WX    TMP DP  RH WIND       PRES   REMARKS
CLE-HOPKINS    MOSUNNY   53  49  86 CALM      30.27R
CLE-LAKEFRONT  SUNNY     56  48  74 SE9       30.24R
CUY CO. ARPT   MOSUNNY   59  52  77 SE7       30.26R
LORAIN-ELYRIA  SUNNY     52  48  86 CALM      30.26R
ASHTABULA      SUNNY     51  48  89 SE3       30.27R
AKRON-CANTON   MOSUNNY   53  48  83 E5        30.25R HAZE
WOOSTER        SUNNY     52  49  89 E5        30.25S FOG
MANSFIELD      SUNNY     53  50  89 E8        30.24S
YOUNGSTOWN     MOSUNNY   50  48  93 E8        30.26R
$$

OHZ042-051>053-060>062-070>072-077>081-191400-
  SOUTHWEST OHIO

CITY           SKY/WX    TMP DP  RH WIND       PRES   REMARKS
CINC-COVINGTON SUNNY     57  50  77 E10       30.18R
CINC-LUNKEN    SUNNY     54  51  90 NE5       30.19S
HAMILTON       SUNNY     56  51  84 CALM      30.21R
DAYTON         MOSUNNY   56  50  80 E8        30.22R
WRIGHT-PAT AFB MOSUNNY   53  49  87 NE3       30.21R
DAYTON GENERAL SUNNY     54  50  86 NE9       30.20R
WILMINGTON     SUNNY     52  49  89 NE7       30.20R FOG
$$

OHZ036-037-039>041-045>050-054>059-063>069-073>076-082>088-191400-
  CENTRAL AND SOUTHEAST OHIO

CITY           SKY/WX    TMP DP  RH WIND       PRES   REMARKS
COLUMBUS       SUNNY     58  48  69 E8        30.21R
OSU AIRPORT    SUNNY     55  50  83 E7        30.22R
BOLTON FIELD   SUNNY     54  52  94 CALM      30.21S
RICKENBACK AFB SUNNY     53  50  90 NE7       30.21R
NEWARK         SUNNY     53  49  86 NE6       30.22R
MARION         SUNNY     53  49  86 NE3       30.24R FOG
LANCASTER      SUNNY     54  51  90 CALM      30.21S FOG
ZANESVILLE     SUNNY     53  48  83 NE5       30.21S
NEW PHILLY     SUNNY     51  49  92 CALM      30.24S FOG
$$



USA.gov is the U.S. government's official web portal to all federal, state and local government web resources and services.